| time (UTC) | temp F | wind direction | speed MPH | gust MPH | rain 1hr in | rain 24hr in | rain mn in | humidity % | barometer mb |
| 20260901070004 | 55 | 275 | 0.0 | 0.0 | 0.00 | 0.00 | 0.00 | 80 | 1013.4 |
| 20260901065504 | 55 | 275 | 0.0 | 0.0 | 0.00 | 0.00 | 0.00 | 78 | 1013.4 |
| 20260901065004 | 55 | 275 | 0.0 | 0.0 | 0.00 | 0.00 | 0.00 | 78 | 1013.3 |
| 20260901064504 | 55 | 275 | 0.0 | 0.0 | 0.00 | 0.00 | 0.00 | 77 | 1013.3 |
| 20260901064004 | 56 | 275 | 0.0 | 0.0 | 0.00 | 0.00 | 0.00 | 76 | 1013.4 |
| 20260901063504 | 56 | 275 | 0.0 | 0.0 | 0.00 | 0.00 | 0.00 | 76 | 1013.3 |
| 20260901063004 | 56 | 275 | 0.0 | 0.0 | 0.00 | 0.00 | 0.00 | 76 | 1013.3 |
| 20260901062504 | 57 | 275 | 0.0 | 0.0 | 0.00 | 0.00 | 0.00 | 76 | 1013.2 |
| 20260901062005 | 57 | 275 | 0.0 | 0.0 | 0.00 | 0.00 | 0.00 | 75 | 1013.2 |
| 20260901061504 | 57 | 275 | 0.0 | 0.0 | 0.00 | 0.00 | 0.00 | 76 | 1013.3 |
| 20260901061004 | 57 | 275 | 0.0 | 0.0 | 0.00 | 0.00 | 0.00 | 76 | 1013.1 |
| 20260901060504 | 57 | 275 | 0.0 | 2.0 | 0.00 | 0.00 | 0.00 | 76 | 1013.0 |
| 20260901060004 | 56 | 275 | 1.0 | 2.0 | 0.00 | 0.00 | 0.00 | 76 | 1013.4 |
| 20260901055503 | 57 | 275 | 1.0 | 2.0 | 0.00 | 0.00 | 0.00 | 76 | 1013.4 |
| 20260901054504 | 57 | 275 | 1.0 | 2.0 | 0.00 | 0.00 | 0.00 | 75 | 1013.3 |
| 20260901054004 | 57 | 275 | 0.0 | 2.0 | 0.00 | 0.00 | 0.00 | 73 | 1013.3 |
| 20260901053504 | 58 | 275 | 0.0 | 1.0 | 0.00 | 0.00 | 0.00 | 73 | 1013.4 |
| 20260901052004 | 59 | 275 | 0.0 | 0.0 | 0.00 | 0.00 | 0.00 | 72 | 1013.5 |
| 20260901051504 | 59 | 275 | 0.0 | 0.0 | 0.00 | 0.00 | 0.00 | 71 | 1013.5 |
| 20260901051003 | 60 | 275 | 0.0 | 0.0 | 0.00 | 0.00 | 0.00 | 70 | 1013.5 |
| 20260901050504 | 60 | 275 | 0.0 | 0.0 | 0.00 | 0.00 | 0.00 | 70 | 1013.5 |
| 20260901050004 | 60 | 275 | 0.0 | 0.0 | 0.00 | 0.00 | 0.00 | 70 | 1013.6 |
| 20260901045004 | 60 | 275 | 0.0 | 0.0 | 0.00 | 0.00 | 0.00 | 70 | 1013.4 |
| 20260901044506 | 61 | 275 | 0.0 | 1.0 | 0.00 | 0.00 | 0.00 | 70 | 1013.5 |
| 20260901044004 | 61 | 275 | 1.0 | 2.0 | 0.00 | 0.00 | 0.00 | 69 | 1013.5 |
| 20260901043504 | 61 | 275 | 1.0 | 2.0 | 0.00 | 0.00 | 0.00 | 69 | 1013.4 |
| 20260901042504 | 61 | 275 | 1.0 | 2.0 | 0.00 | 0.00 | 0.00 | 69 | 1013.4 |
| 20260901042004 | 61 | 275 | 0.0 | 0.0 | 0.00 | 0.00 | 0.00 | 69 | 1013.4 |
| 20260901041504 | 61 | 275 | 0.0 | 0.0 | 0.00 | 0.00 | 0.00 | 69 | 1013.4 |
| 20260901041003 | 61 | 275 | 0.0 | 1.0 | 0.00 | 0.00 | 0.00 | 69 | 1013.4 |
| 20260901040503 | 61 | 275 | 1.0 | 2.0 | 0.00 | 0.00 | 0.00 | 67 | 1013.4 |
| 20260901040004 | 62 | 275 | 0.0 | 2.0 | 0.00 | 0.00 | 0.00 | 67 | 1013.2 |
| 20260901035504 | 62 | 275 | 1.0 | 2.0 | 0.00 | 0.00 | 0.00 | 67 | 1013.2 |
| 20260901035004 | 62 | 275 | 1.0 | 2.0 | 0.00 | 0.00 | 0.00 | 65 | 1013.1 |
| 20260901034504 | 63 | 275 | 0.0 | 2.0 | 0.00 | 0.00 | 0.00 | 65 | 1013.1 |
| 20260901034005 | 63 | 275 | 0.0 | 2.0 | 0.00 | 0.00 | 0.00 | 65 | 1013.1 |
| 20260901033503 | 63 | 275 | 1.0 | 2.0 | 0.00 | 0.00 | 0.00 | 64 | 1013.1 |
| 20260901033004 | 64 | 275 | 0.0 | 2.0 | 0.00 | 0.00 | 0.00 | 63 | 1013.1 |
| 20260901032504 | 64 | 275 | 1.0 | 2.0 | 0.00 | 0.00 | 0.00 | 63 | 1013.1 |
| 20260901032004 | 64 | 275 | 1.0 | 3.0 | 0.00 | 0.00 | 0.00 | 62 | 1012.9 |
| 20260901031004 | 65 | 274 | 1.0 | 3.0 | 0.00 | 0.00 | 0.00 | 60 | 1012.9 |
| 20260901030504 | 66 | 278 | 2.0 | 6.0 | 0.00 | 0.00 | 0.00 | 59 | 1013.0 |
| 20260901030004 | 67 | 263 | 2.0 | 6.0 | 0.00 | 0.00 | 0.00 | 57 | 1012.9 |
| 20260901025004 | 68 | 277 | 1.0 | 2.0 | 0.00 | 0.00 | 0.00 | 52 | 1012.9 |
| 20260901024503 | 69 | 277 | 2.0 | 3.0 | 0.00 | 0.00 | 0.00 | 51 | 1012.9 |
| 20260901024004 | 70 | 30 | 1.0 | 3.0 | 0.00 | 0.00 | 0.00 | 49 | 1012.8 |
| 20260901023003 | 71 | 35 | 1.0 | 2.0 | 0.00 | 0.00 | 0.00 | 48 | 1012.8 |
| 20260901022504 | 71 | 35 | 0.0 | 1.0 | 0.00 | 0.00 | 0.00 | 47 | 1012.8 |
| 20260901022004 | 72 | 35 | 0.0 | 0.0 | 0.00 | 0.00 | 0.00 | 47 | 1012.7 |
| 20260901021503 | 72 | 35 | 0.0 | 1.0 | 0.00 | 0.00 | 0.00 | 47 | 1012.7 |
| 20260901021004 | 73 | 35 | 0.0 | 2.0 | 0.00 | 0.00 | 0.00 | 47 | 1012.8 |
| 20260901020004 | 73 | 35 | 1.0 | 3.0 | 0.00 | 0.00 | 0.00 | 45 | 1012.9 |
| 20260901015504 | 73 | 178 | 0.0 | 3.0 | 0.00 | 0.00 | 0.00 | 45 | 1012.8 |
| 20260901015007 | 73 | 191 | 0.0 | 0.0 | 0.00 | 0.00 | 0.00 | 45 | 1012.8 |
| 20260901014505 | 73 | 191 | 0.0 | 0.0 | 0.00 | 0.00 | 0.00 | 45 | 1012.8 |
| 20260901014005 | 72 | 191 | 1.0 | 2.0 | 0.00 | 0.00 | 0.00 | 45 | 1012.9 |
| 20260901013005 | 73 | 191 | 2.0 | 3.0 | 0.00 | 0.00 | 0.00 | 44 | 1012.8 |
| 20260901012504 | 74 | 192 | 1.0 | 3.0 | 0.00 | 0.00 | 0.00 | 43 | 1013.0 |
| 20260901012005 | 75 | 190 | 3.0 | 6.0 | 0.00 | 0.00 | 0.00 | 42 | 1012.7 |
| 20260901011505 | 76 | 252 | 2.0 | 5.0 | 0.00 | 0.00 | 0.00 | 41 | 1012.8 |
| 20260901011005 | 76 | 212 | 3.0 | 7.0 | 0.00 | 0.00 | 0.00 | 41 | 1012.8 |
| 20260901010505 | 76 | 294 | 1.0 | 3.0 | 0.00 | 0.00 | 0.00 | 41 | 1012.9 |
| 20260901005004 | 77 | 213 | 4.0 | 7.0 | 0.00 | 0.00 | 0.00 | 39 | 1012.9 |
| 20260901004505 | 77 | 202 | 1.0 | 3.0 | 0.00 | 0.00 | 0.00 | 40 | 1013.0 |
| 20260901004005 | 77 | 286 | 3.0 | 7.0 | 0.00 | 0.00 | 0.00 | 39 | 1013.0 |
| 20260901003505 | 77 | 214 | 3.0 | 7.0 | 0.00 | 0.00 | 0.00 | 40 | 1012.9 |
| 20260901003005 | 77 | 238 | 3.0 | 6.0 | 0.00 | 0.00 | 0.00 | 39 | 1012.9 |
| 20260901002505 | 77 | 287 | 2.0 | 6.0 | 0.00 | 0.00 | 0.00 | 38 | 1013.0 |
| 20260901002004 | 77 | 215 | 2.0 | 7.0 | 0.00 | 0.00 | 0.00 | 39 | 1013.0 |
| 20260901001505 | 77 | 232 | 4.0 | 8.0 | 0.00 | 0.00 | 0.00 | 38 | 1012.9 |
| 20260901001005 | 77 | 191 | 3.0 | 6.0 | 0.00 | 0.00 | 0.00 | 39 | 1013.1 |
| 20260901000505 | 77 | 182 | 4.0 | 9.0 | 0.00 | 0.00 | 0.00 | 39 | 1013.0 |
| 20260901000004 | 77 | 229 | 3.0 | 7.0 | 0.00 | 0.00 | 0.00 | 38 | 1013.1 |
| 20260831235505 | 77 | 238 | 3.0 | 7.0 | 0.00 | 0.00 | 0.00 | 38 | 1013.1 |
| 20260831235004 | 77 | 321 | 3.0 | 8.0 | 0.00 | 0.00 | 0.00 | 39 | 1013.1 |
| 20260831234505 | 77 | 210 | 4.0 | 7.0 | 0.00 | 0.00 | 0.00 | 39 | 1013.1 |
| 20260831234005 | 77 | 248 | 5.0 | 10.0 | 0.00 | 0.00 | 0.00 | 39 | 1013.2 |
| 20260831232505 | 78 | 200 | 3.0 | 12.0 | 0.00 | 0.00 | 0.00 | 39 | 1013.1 |
| 20260831232005 | 78 | 285 | 2.0 | 8.0 | 0.00 | 0.00 | 0.00 | 37 | 1013.2 |
| 20260831231505 | 78 | 296 | 5.0 | 12.0 | 0.00 | 0.00 | 0.00 | 37 | 1013.2 |
| 20260831231005 | 79 | 209 | 4.0 | 12.0 | 0.00 | 0.00 | 0.00 | 36 | 1013.2 |
| 20260831230505 | 80 | 197 | 8.0 | 12.0 | 0.00 | 0.00 | 0.00 | 34 | 1013.1 |
| 20260831230004 | 80 | 229 | 3.0 | 10.0 | 0.00 | 0.00 | 0.00 | 31 | 1013.1 |
| 20260831225504 | 80 | 203 | 8.0 | 14.0 | 0.00 | 0.00 | 0.00 | 32 | 1013.0 |
| 20260831225005 | 79 | 225 | 6.0 | 12.0 | 0.00 | 0.00 | 0.00 | 32 | 1013.2 |
| 20260831224505 | 79 | 182 | 6.0 | 12.0 | 0.00 | 0.00 | 0.00 | 32 | 1013.1 |
| 20260831224004 | 79 | 191 | 7.0 | 12.0 | 0.00 | 0.00 | 0.00 | 33 | 1013.2 |
| 20260831223005 | 80 | 196 | 6.0 | 12.0 | 0.00 | 0.00 | 0.00 | 32 | 1013.3 |
| 20260831222505 | 80 | 202 | 6.0 | 12.0 | 0.00 | 0.00 | 0.00 | 32 | 1013.3 |
| 20260831222004 | 80 | 160 | 6.0 | 10.0 | 0.00 | 0.00 | 0.00 | 32 | 1013.4 |
| 20260831221504 | 79 | 204 | 3.0 | 9.0 | 0.00 | 0.00 | 0.00 | 35 | 1013.4 |
| 20260831221005 | 80 | 208 | 5.0 | 12.0 | 0.00 | 0.00 | 0.00 | 34 | 1013.5 |
| 20260831220505 | 79 | 209 | 2.0 | 9.0 | 0.00 | 0.00 | 0.00 | 35 | 1013.5 |
| 20260831220004 | 79 | 164 | 4.0 | 9.0 | 0.00 | 0.00 | 0.00 | 36 | 1013.5 |
| 20260831215005 | 78 | 176 | 4.0 | 10.0 | 0.00 | 0.00 | 0.00 | 40 | 1013.6 |
| 20260831214504 | 78 | 234 | 5.0 | 14.0 | 0.00 | 0.00 | 0.00 | 38 | 1013.6 |
| 20260831214005 | 78 | 194 | 5.0 | 12.0 | 0.00 | 0.00 | 0.00 | 40 | 1013.7 |
| 20260831213505 | 78 | 221 | 5.0 | 12.0 | 0.00 | 0.00 | 0.00 | 41 | 1013.8 |
| 20260831213005 | 78 | 198 | 7.0 | 12.0 | 0.00 | 0.00 | 0.00 | 42 | 1013.8 |
| 20260831212505 | 78 | 193 | 6.0 | 10.0 | 0.00 | 0.00 | 0.00 | 41 | 1013.7 |
| 20260831212006 | 78 | 229 | 2.0 | 12.0 | 0.00 | 0.00 | 0.00 | 42 | 1013.8 |
| 20260831211505 | 78 | 190 | 4.0 | 12.0 | 0.00 | 0.00 | 0.00 | 42 | 1013.7 |
| 20260831211005 | 78 | 247 | 4.0 | 12.0 | 0.00 | 0.00 | 0.00 | 43 | 1013.9 |
| 20260831210505 | 77 | 254 | 5.0 | 10.0 | 0.00 | 0.00 | 0.00 | 42 | 1013.9 |
| 20260831210005 | 78 | 226 | 6.0 | 12.0 | 0.00 | 0.00 | 0.00 | 42 | 1013.8 |
| 20260831205504 | 78 | 193 | 6.0 | 12.0 | 0.00 | 0.00 | 0.00 | 43 | 1013.8 |
| 20260831205004 | 78 | 193 | 6.0 | 12.0 | 0.00 | 0.00 | 0.00 | 41 | 1013.7 |
| 20260831204504 | 78 | 204 | 6.0 | 12.0 | 0.00 | 0.00 | 0.00 | 41 | 1013.6 |
| 20260831204005 | 79 | 230 | 5.0 | 12.0 | 0.00 | 0.00 | 0.00 | 41 | 1013.7 |
| 20260831203504 | 79 | 273 | 5.0 | 12.0 | 0.00 | 0.00 | 0.00 | 41 | 1013.7 |
| 20260831203005 | 79 | 238 | 2.0 | 9.0 | 0.00 | 0.00 | 0.00 | 40 | 1013.8 |
| 20260831202505 | 78 | 216 | 4.0 | 13.0 | 0.00 | 0.00 | 0.00 | 40 | 1013.8 |
| 20260831202005 | 79 | 203 | 7.0 | 15.0 | 0.00 | 0.00 | 0.00 | 39 | 1013.7 |
| 20260831201505 | 79 | 181 | 6.0 | 15.0 | 0.00 | 0.00 | 0.00 | 40 | 1013.6 |
| 20260831201005 | 79 | 189 | 5.0 | 10.0 | 0.00 | 0.00 | 0.00 | 38 | 1013.6 |
| 20260831200505 | 79 | 205 | 6.0 | 12.0 | 0.00 | 0.00 | 0.00 | 38 | 1013.7 |
| 20260831200005 | 80 | 260 | 5.0 | 12.0 | 0.00 | 0.00 | 0.00 | 38 | 1013.8 |
| 20260831195504 | 80 | 178 | 5.0 | 12.0 | 0.00 | 0.00 | 0.00 | 37 | 1013.6 |
| 20260831195005 | 79 | 219 | 8.0 | 12.0 | 0.00 | 0.00 | 0.00 | 38 | 1013.6 |
| 20260831194505 | 80 | 282 | 6.0 | 12.0 | 0.00 | 0.00 | 0.00 | 38 | 1013.6 |
| 20260831194004 | 79 | 228 | 3.0 | 7.0 | 0.00 | 0.00 | 0.00 | 39 | 1013.7 |
| 20260831193505 | 79 | 206 | 6.0 | 14.0 | 0.00 | 0.00 | 0.00 | 38 | 1013.7 |
| 20260831192005 | 82 | 177 | 6.0 | 12.0 | 0.00 | 0.00 | 0.00 | 33 | 1014.0 |
| 20260831191505 | 81 | 217 | 5.0 | 12.0 | 0.00 | 0.00 | 0.00 | 34 | 1014.0 |
| 20260831191005 | 80 | 198 | 6.0 | 12.0 | 0.00 | 0.00 | 0.00 | 35 | 1013.8 |
| 20260831190504 | 80 | 216 | 4.0 | 13.0 | 0.00 | 0.00 | 0.00 | 35 | 1013.8 |
| 20260831190004 | 80 | 155 | 7.0 | 14.0 | 0.00 | 0.00 | 0.00 | 35 | 1013.9 |
| 20260831185504 | 80 | 195 | 7.0 | 15.0 | 0.00 | 0.00 | 0.00 | 35 | 1013.9 |
| 20260831185005 | 80 | 187 | 5.0 | 12.0 | 0.00 | 0.00 | 0.00 | 35 | 1013.9 |
| 20260831184505 | 80 | 200 | 7.0 | 13.0 | 0.00 | 0.00 | 0.00 | 35 | 1014.0 |
| 20260831183005 | 80 | 179 | 7.0 | 12.0 | 0.00 | 0.00 | 0.00 | 35 | 1013.9 |
| 20260831182004 | 79 | 213 | 5.0 | 10.0 | 0.00 | 0.00 | 0.00 | 37 | 1013.9 |
| 20260831181505 | 79 | 210 | 5.0 | 8.0 | 0.00 | 0.00 | 0.00 | 37 | 1013.9 |
| 20260831181005 | 79 | 219 | 6.0 | 10.0 | 0.00 | 0.00 | 0.00 | 37 | 1013.8 |
| 20260831180505 | 79 | 216 | 7.0 | 12.0 | 0.00 | 0.00 | 0.00 | 36 | 1013.8 |
| 20260831175505 | 79 | 183 | 6.0 | 9.0 | 0.00 | 0.00 | 0.00 | 38 | 1013.9 |
| 20260831175005 | 78 | 192 | 7.0 | 12.0 | 0.00 | 0.00 | 0.00 | 38 | 1013.9 |
| 20260831174504 | 78 | 220 | 7.0 | 10.0 | 0.00 | 0.00 | 0.00 | 38 | 1013.9 |
| 20260831174005 | 78 | 198 | 6.0 | 12.0 | 0.00 | 0.00 | 0.00 | 38 | 1013.8 |
| 20260831173505 | 79 | 211 | 4.0 | 8.0 | 0.00 | 0.00 | 0.00 | 39 | 1013.8 |
| 20260831173004 | 78 | 201 | 4.0 | 8.0 | 0.00 | 0.00 | 0.00 | 40 | 1013.8 |
| 20260831172504 | 78 | 186 | 3.0 | 8.0 | 0.00 | 0.00 | 0.00 | 40 | 1013.7 |
| 20260831171504 | 77 | 207 | 2.0 | 8.0 | 0.00 | 0.00 | 0.00 | 40 | 1013.5 |
| 20260831171005 | 77 | 188 | 2.0 | 8.0 | 0.00 | 0.00 | 0.00 | 40 | 1013.4 |
| 20260831170004 | 77 | 240 | 5.0 | 8.0 | 0.00 | 0.00 | 0.00 | 40 | 1013.5 |
| 20260831165504 | 77 | 189 | 5.0 | 8.0 | 0.00 | 0.00 | 0.00 | 40 | 1013.6 |
| 20260831165005 | 77 | 218 | 5.0 | 10.0 | 0.00 | 0.00 | 0.00 | 41 | 1013.4 |
| 20260831164505 | 77 | 210 | 4.0 | 10.0 | 0.00 | 0.00 | 0.00 | 40 | 1013.5 |
| 20260831164004 | 77 | 208 | 5.0 | 7.0 | 0.00 | 0.00 | 0.00 | 38 | 1013.5 |
| 20260831163505 | 77 | 218 | 3.0 | 5.0 | 0.00 | 0.00 | 0.00 | 40 | 1013.5 |
| 20260831163004 | 76 | 194 | 3.0 | 7.0 | 0.00 | 0.00 | 0.00 | 41 | 1013.4 |
| 20260831162505 | 76 | 169 | 5.0 | 8.0 | 0.00 | 0.00 | 0.00 | 40 | 1013.4 |
| 20260831162005 | 75 | 158 | 3.0 | 7.0 | 0.00 | 0.00 | 0.00 | 42 | 1013.2 |
| 20260831161504 | 75 | 227 | 3.0 | 7.0 | 0.00 | 0.00 | 0.00 | 44 | 1013.3 |
| 20260831161005 | 74 | 153 | 3.0 | 3.0 | 0.00 | 0.00 | 0.00 | 44 | 1013.4 |
| 20260831160504 | 74 | 128 | 2.0 | 3.0 | 0.00 | 0.00 | 0.00 | 43 | 1013.4 |
| 20260831160005 | 73 | 123 | 2.0 | 3.0 | 0.00 | 0.00 | 0.00 | 44 | 1013.3 |
| 20260831155504 | 73 | 123 | 1.0 | 3.0 | 0.00 | 0.00 | 0.00 | 44 | 1013.3 |
| 20260831155005 | 73 | 123 | 1.0 | 3.0 | 0.00 | 0.00 | 0.00 | 44 | 1013.4 |
| 20260831154504 | 72 | 123 | 1.0 | 2.0 | 0.00 | 0.00 | 0.00 | 44 | 1013.3 |
| 20260831153504 | 72 | 123 | 0.0 | 0.0 | 0.00 | 0.00 | 0.00 | 45 | 1013.4 |
| 20260831152505 | 72 | 123 | 0.0 | 2.0 | 0.00 | 0.00 | 0.00 | 45 | 1013.4 |
| 20260831152004 | 72 | 123 | 0.0 | 0.0 | 0.00 | 0.00 | 0.00 | 45 | 1013.4 |
| 20260831151504 | 72 | 123 | 0.0 | 2.0 | 0.00 | 0.00 | 0.00 | 44 | 1013.4 |
| 20260831150505 | 72 | 123 | 1.0 | 2.0 | 0.00 | 0.00 | 0.00 | 43 | 1013.4 |
| 20260831150005 | 72 | 123 | 1.0 | 3.0 | 0.00 | 0.00 | 0.00 | 43 | 1013.4 |
| 20260831145504 | 71 | 123 | 2.0 | 3.0 | 0.00 | 0.00 | 0.00 | 44 | 1013.2 |
| 20260831145005 | 71 | 123 | 2.0 | 3.0 | 0.00 | 0.00 | 0.00 | 44 | 1013.2 |
| 20260831144005 | 70 | 123 | 2.0 | 3.0 | 0.00 | 0.00 | 0.00 | 44 | 1013.1 |
| 20260831143504 | 70 | 123 | 4.0 | 5.0 | 0.00 | 0.00 | 0.00 | 44 | 1013.0 |
| 20260831143005 | 70 | 126 | 4.0 | 5.0 | 0.00 | 0.00 | 0.00 | 44 | 1013.1 |
| 20260831142504 | 70 | 128 | 3.0 | 5.0 | 0.00 | 0.00 | 0.00 | 44 | 1013.0 |
| 20260831142004 | 70 | 129 | 3.0 | 5.0 | 0.00 | 0.00 | 0.00 | 45 | 1013.1 |
| 20260831141505 | 70 | 129 | 2.0 | 3.0 | 0.00 | 0.00 | 0.00 | 45 | 1013.1 |
| 20260831141005 | 70 | 129 | 2.0 | 3.0 | 0.00 | 0.00 | 0.00 | 45 | 1013.1 |
| 20260831140504 | 70 | 129 | 2.0 | 3.0 | 0.00 | 0.00 | 0.00 | 45 | 1013.0 |
| 20260831135505 | 69 | 129 | 2.0 | 3.0 | 0.00 | 0.00 | 0.00 | 45 | 1013.0 |
| 20260831135004 | 69 | 129 | 2.0 | 3.0 | 0.00 | 0.00 | 0.00 | 46 | 1012.9 |
| 20260831134504 | 69 | 129 | 2.0 | 3.0 | 0.00 | 0.00 | 0.00 | 46 | 1012.8 |
| 20260831134004 | 69 | 129 | 2.0 | 3.0 | 0.00 | 0.00 | 0.00 | 47 | 1013.0 |
| 20260831133504 | 69 | 129 | 2.0 | 3.0 | 0.00 | 0.00 | 0.00 | 46 | 1012.9 |
| 20260831133004 | 69 | 129 | 2.0 | 2.0 | 0.00 | 0.00 | 0.00 | 46 | 1012.8 |
| 20260831132504 | 69 | 129 | 1.0 | 2.0 | 0.00 | 0.00 | 0.00 | 46 | 1012.9 |
| 20260831132004 | 69 | 129 | 2.0 | 3.0 | 0.00 | 0.00 | 0.00 | 45 | 1012.8 |
| 20260831131505 | 69 | 129 | 1.0 | 3.0 | 0.00 | 0.00 | 0.00 | 46 | 1012.8 |
| 20260831130504 | 69 | 252 | 0.0 | 2.0 | 0.00 | 0.00 | 0.00 | 46 | 1012.6 |
| 20260831130005 | 68 | 252 | 1.0 | 2.0 | 0.00 | 0.00 | 0.00 | 47 | 1012.7 |
| 20260831125504 | 68 | 252 | 0.0 | 2.0 | 0.00 | 0.00 | 0.00 | 47 | 1012.7 |
| 20260831125004 | 69 | 252 | 1.0 | 2.0 | 0.00 | 0.00 | 0.00 | 47 | 1012.7 |
| 20260831124504 | 69 | 252 | 1.0 | 2.0 | 0.00 | 0.00 | 0.00 | 46 | 1012.7 |
| 20260831124005 | 69 | 252 | 1.0 | 3.0 | 0.00 | 0.00 | 0.00 | 46 | 1012.7 |
| 20260831123504 | 69 | 252 | 0.0 | 0.0 | 0.00 | 0.00 | 0.00 | 46 | 1012.6 |
| 20260831123004 | 69 | 252 | 0.0 | 0.0 | 0.00 | 0.00 | 0.00 | 46 | 1012.7 |
| 20260831122505 | 70 | 252 | 0.0 | 0.0 | 0.00 | 0.00 | 0.00 | 46 | 1012.6 |
| 20260831122004 | 70 | 252 | 0.0 | 0.0 | 0.00 | 0.00 | 0.00 | 46 | 1012.6 |
| 20260831121504 | 70 | 252 | 0.0 | 2.0 | 0.00 | 0.00 | 0.00 | 46 | 1012.5 |
| 20260831121005 | 70 | 252 | 1.0 | 3.0 | 0.00 | 0.00 | 0.00 | 46 | 1012.5 |
| 20260831120504 | 70 | 252 | 2.0 | 3.0 | 0.00 | 0.00 | 0.00 | 46 | 1012.5 |
| 20260831120005 | 70 | 252 | 2.0 | 3.0 | 0.00 | 0.00 | 0.00 | 46 | 1012.7 |
| 20260831115504 | 69 | 252 | 1.0 | 3.0 | 0.00 | 0.00 | 0.00 | 47 | 1012.7 |
| 20260831115004 | 69 | 252 | 1.0 | 2.0 | 0.00 | 0.00 | 0.00 | 48 | 1012.6 |
| 20260831114004 | 69 | 252 | 2.0 | 3.0 | 0.00 | 0.00 | 0.00 | 48 | 1012.6 |
| 20260831113504 | 69 | 252 | 1.0 | 2.0 | 0.00 | 0.00 | 0.00 | 48 | 1012.7 |
| 20260831113005 | 69 | 252 | 1.0 | 2.0 | 0.00 | 0.00 | 0.00 | 48 | 1012.8 |
| 20260831112505 | 69 | 252 | 0.0 | 2.0 | 0.00 | 0.00 | 0.00 | 48 | 1012.8 |
| 20260831112004 | 69 | 252 | 0.0 | 0.0 | 0.00 | 0.00 | 0.00 | 48 | 1012.9 |
| 20260831111504 | 69 | 252 | 0.0 | 0.0 | 0.00 | 0.00 | 0.00 | 48 | 1012.6 |
| 20260831111004 | 69 | 252 | 0.0 | 0.0 | 0.00 | 0.00 | 0.00 | 48 | 1012.6 |
| 20260831110504 | 69 | 252 | 0.0 | 0.0 | 0.00 | 0.00 | 0.00 | 48 | 1012.6 |
| 20260831110004 | 69 | 252 | 0.0 | 0.0 | 0.00 | 0.00 | 0.00 | 49 | 1012.9 |
| 20260831104504 | 69 | 252 | 0.0 | 0.0 | 0.00 | 0.00 | 0.00 | 49 | 1012.8 |
| 20260831103004 | 68 | 252 | 1.0 | 2.0 | 0.00 | 0.00 | 0.00 | 49 | 1012.8 |
| 20260831102504 | 68 | 252 | 1.0 | 2.0 | 0.00 | 0.00 | 0.00 | 49 | 1012.9 |
| 20260831102005 | 68 | 252 | 0.0 | 1.0 | 0.00 | 0.00 | 0.00 | 50 | 1012.9 |
| 20260831101505 | 68 | 252 | 0.0 | 0.0 | 0.00 | 0.00 | 0.00 | 50 | 1012.9 |
| 20260831101004 | 68 | 252 | 0.0 | 0.0 | 0.00 | 0.00 | 0.00 | 50 | 1012.9 |
| 20260831100504 | 68 | 252 | 0.0 | 0.0 | 0.00 | 0.00 | 0.00 | 50 | 1012.8 |
| 20260831100004 | 68 | 252 | 0.0 | 0.0 | 0.00 | 0.00 | 0.00 | 49 | 1012.6 |
| 20260831095504 | 68 | 252 | 0.0 | 0.0 | 0.00 | 0.00 | 0.00 | 49 | 1012.7 |
| 20260831095004 | 68 | 252 | 1.0 | 2.0 | 0.00 | 0.00 | 0.00 | 49 | 1012.6 |
| 20260831094504 | 69 | 252 | 2.0 | 3.0 | 0.00 | 0.00 | 0.00 | 49 | 1012.6 |
| 20260831094004 | 69 | 252 | 0.0 | 1.0 | 0.00 | 0.00 | 0.00 | 49 | 1012.6 |
| 20260831092504 | 69 | 252 | 1.0 | 2.0 | 0.00 | 0.00 | 0.00 | 49 | 1012.6 |
| 20260831091503 | 69 | 252 | 1.0 | 2.0 | 0.00 | 0.00 | 0.00 | 49 | 1012.7 |
| 20260831091004 | 69 | 252 | 1.0 | 2.0 | 0.00 | 0.00 | 0.00 | 50 | 1012.7 |
| 20260831090504 | 68 | 252 | 1.0 | 3.0 | 0.00 | 0.00 | 0.00 | 50 | 1012.8 |
| 20260831085504 | 68 | 252 | 1.0 | 2.0 | 0.00 | 0.00 | 0.00 | 51 | 1012.9 |
| 20260831084504 | 67 | 252 | 1.0 | 2.0 | 0.00 | 0.00 | 0.00 | 51 | 1012.8 |
| 20260831083504 | 67 | 252 | 2.0 | 3.0 | 0.00 | 0.00 | 0.00 | 52 | 1013.0 |
| 20260831082505 | 67 | 252 | 0.0 | 0.0 | 0.00 | 0.00 | 0.00 | 52 | 1013.1 |
| 20260831082004 | 67 | 252 | 0.0 | 0.0 | 0.00 | 0.00 | 0.00 | 52 | 1013.1 |
| 20260831081504 | 67 | 252 | 0.0 | 0.0 | 0.00 | 0.00 | 0.00 | 52 | 1013.2 |
| 20260831081004 | 67 | 252 | 0.0 | 0.0 | 0.00 | 0.00 | 0.00 | 52 | 1013.2 |
| 20260831080504 | 67 | 252 | 0.0 | 0.0 | 0.00 | 0.00 | 0.00 | 52 | 1013.2 |
| 20260831080005 | 67 | 252 | 0.0 | 0.0 | 0.00 | 0.00 | 0.00 | 52 | 1013.3 |
| 20260831075504 | 67 | 252 | 0.0 | 0.0 | 0.00 | 0.00 | 0.00 | 52 | 1013.3 |
| 20260831074004 | 67 | 252 | 0.0 | 0.0 | 0.00 | 0.00 | 0.00 | 52 | 1013.3 |
| 20260831073504 | 67 | 252 | 0.0 | 0.0 | 0.00 | 0.00 | 0.00 | 51 | 1013.2 |
| 20260831072504 | 67 | 252 | 0.0 | 0.0 | 0.00 | 0.00 | 0.00 | 51 | 1013.3 |
| 20260831072004 | 67 | 252 | 0.0 | 0.0 | 0.00 | 0.00 | 0.00 | 52 | 1013.1 |
| 20260831071504 | 66 | 252 | 0.0 | 0.0 | 0.00 | 0.00 | 0.00 | 52 | 1013.3 |
| 20260831071006 | 67 | 252 | 0.0 | 0.0 | 0.00 | 0.00 | 0.00 | 52 | 1013.3 |
| 20260831070504 | 67 | 252 | 0.0 | 0.0 | 0.00 | 0.00 | 0.00 | 52 | 1013.2 |